Погода в Валмиере

Латвия     57°31′57″N   25°25′17″E
темп.,
°C
ветер,
м/с
пор.,
м/с
влажн.,
%
обл.,
%
осадки,
мм/ч
давл.,
гПа
погр.,
м
7 марта, вс
вс723:00+2зюз81680100 0.2 10021229
02:000сз71296100 4.4 10001045
05:00−2зюз4878100 1.1 999491
08:00−3з71394100 2.8 9971087
11:00−1зсз8154696 0.7 9982412
14:00−1зсз8155585 0.8 9991928
17:00−2зсз71473100 0.1 9991641
20:00−4зсз61185100 0.3 1000903
8 марта, пн
пн823:00−4ссз5987100 0.3 1002878
02:00−5ссз388190 0.4 1005570
05:00−6ссз498459 0.0 1008978
08:00−7с487579 0.1 1011917
11:00−5с4667100 0.0 1013870
14:00−4с3563100 0.0 1015926
17:00−4ссз356180 0.0 10161137
20:00−7ссв227944 0.0 101845
9 марта, вт
вт923:00−8с12850 0.0 101926
02:00−9зюз11840 0.0 102021
05:00−9зюз128349 0.0 102036
08:00−7юз367275 0.0 1020222
11:00−3юз4769100 0.0 1019547
14:00−1зюз5861100 0.0 10181158
17:00−1зюз4966100 0.0 10171084
20:00−2юз41075100 0.1 1016561
10 марта, ср
ср1023:00−2зюз51179100 0.0 1016667
02:00−3юз41085100 0.1 1017532
05:00−4с2595100 1.5 1017256
08:00−8св488899 2.0 1019332
11:00−6всв477699 0.1 1020455
14:00−5всв467598 0.1 1020546
17:00−6св478095 0.0 1020545
20:00−7всв378895 0.1 1021468
11 марта, чт
чт1123:00−8всв379297 0.0 1021388
02:00−9в259596 0.1 1021238
05:00−10вюв259480 0.0 1019225
08:00−9юв258973 0.0 1018202
11:00−3ююв487116 0.0 1015703
14:000ю596253 0.0 1012970
17:000ююв51265100 0.0 1008979
20:00−1ю71563100 0.0 10041046